Miscellaneous Local Product
Issued by NWS Hastings, NE

Home | Current Version | Previous Version | Graphics & Text | Print | Product List | Glossary On
Versions: 1 2 3 4 5 6 7 8 9 10 11 12 13 14 15 16 17 18 19 20 21 22 23 24 25 26 27 28 29 30 31 32 33 34 35 36 37 38 39 40 41 42 43 44 45 46 47 48 49 50
112
AXUS43 KGID 171402
MISGRI

GID CWA HOURLY WEATHER ROUNDUP
NATIONAL WEATHER SERVICE HASTINGS NE
900 AM CDT THU AUG 17 2017

NOTE: "FAIR" INDICATES FEW OR NO CLOUDS BELOW 12,000 FEET WITH NO
SIGNIFICANT WEATHER AND/OR OBSTRUCTIONS TO VISIBILITY.

...SOUTH CENTRAL NEBRASKA...

CITY           SKY/WX    TMP DP  RH WIND       PRES   REMARKS
GRAND ISLAND   SUNNY     62  58  86 W12       30.02R
HASTINGS       SUNNY     63  57  81 W8        30.04S
KEARNEY        SUNNY     64  57  78 W3        30.04S
ORD            SUNNY     62  55  77 W6        30.00S
YORK           SUNNY     63  59  88 W8        30.00S
AURORA         SUNNY     62  59  91 W7        30.01R
LEXINGTON      SUNNY     61  56  84 W3        30.05F
HOLDREGE       SUNNY     64  57  79 CALM      30.05S
HEBRON         SUNNY     66  61  84 NW5       30.01S

...NEBRASKA PANHANDLE...

CITY           SKY/WX    TMP DP  RH WIND       PRES   REMARKS
CHADRON        CLOUDY    62  54  74 CALM      30.00S
ALLIANCE       SUNNY     61  56  83 S6        30.06S
SCOTTSBLUFF    SUNNY     59  52  77 E8        30.06S
SIDNEY         SUNNY     63  56  78 S10       30.12S

...WESTERN AND NORTH CENTRAL NEBRASKA...

CITY           SKY/WX    TMP DP  RH WIND       PRES   REMARKS
VALENTINE      SUNNY     59  51  75 SW5       30.01S
AINSWORTH      SUNNY     62  55  77 CALM      30.02S
ONEILL         SUNNY     62  54  75 W6        30.00S
BROKEN BOW     SUNNY     61  54  77 SW5       30.04R
IMPERIAL       SUNNY     61  55  81 SW8       30.11R
NORTH PLATTE   SUNNY     62  57  83 W6        30.08S
MCCOOK         SUNNY     61  58  90 W10       30.09R

...EASTERN NEBRASKA...

CITY           SKY/WX    TMP DP  RH WIND       PRES   REMARKS
NORFOLK        SUNNY     63  56  78 W10       29.94R
SO SIOUX CITY  SUNNY     67  62  84 W10       29.88S
TEKAMAH        SUNNY     68  59  73 NW13      29.90S
COLUMBUS       SUNNY     64  57  78 W12       29.97S
ALBION         SUNNY     64  58  80 NW5       29.99S
OMAHA EPPLEY   MOSUNNY   69  59  70 NW17      29.90S
OFFUTT AFB     SUNNY     69  59  69 NW14      29.90S
MILLARD        SUNNY     69  61  75 NW9G17    29.92S
LINCOLN        SUNNY     69  59  70 NW10      29.96S
NEBRASKA CITY  SUNNY     67  64  90 NW14      29.93S
BEATRICE       SUNNY     65  61  86 W9        29.98R
FALLS CITY     SUNNY     68  62  81 NW13      29.92S

...NORTHERN KANSAS...

CITY           SKY/WX    TMP DP  RH WIND       PRES   REMARKS
GOODLAND       SUNNY     65  57  75 SW12      30.13S
HILL CITY      SUNNY     64  61  90 W9        30.09R
NORTON         SUNNY     63  55  77 SW5       30.07S
PHILLIPSBURG   SUNNY     64  61  88 W3        30.06S
SMITH CENTER   SUNNY     61  61 100 CALM      30.05S
HAYS           SUNNY     66  62  87 NW12      30.08R
RUSSELL        SUNNY     67  60  78 NW8       30.05S
CONCORDIA      SUNNY     66  62  87 NW6       30.01S
SALINA         SUNNY     71  62  73 NW13      30.02R
TOPEKA         SUNNY     69  65  86 W7        29.96R



USA.gov is the U.S. government's official web portal to all federal, state and local government web resources and services.